User: anonymous   Login
Location: Drignac
(45.1667°N, 2.0333°E)
Time: 11:28:15
(UTC+00:00)
Language:

HJ-1C - Orbit

View from above orbital plane
View from above orbital plane
View from above satellite
View from above satellite

Ground track
Ground track

The orbit data is extracted from the following two-line orbital elements,

1 38997U 12064A   20185.12465928  .00001304  00000-0  32139-4 0  9992
2 38997  97.1526 214.9736 0008315 319.3125 124.5757 15.42357043428202
Epoch (UTC): 03 July 2020 02:59:30
Eccentricity: 0.0008315
inclination: 97.1526°
perigee height: 433 km
apogee height: 445 km
right ascension of ascending node: 214.9736°
argument of perigee: 319.3125°
revolutions per day: 15.42357043
mean anomaly at epoch: 124.5757°
orbit number at epoch: 42820

The dashed part of the orbit path shows where the satellite is in the earth's shadow,  

DLR